Location: Broekland
(52.3610°N, 6.2005°E)
Time: 16:35:35
(UTC+00:00)

ACS3 Solar Sail - Pass Details

Date: 25 January 2026
Orbit: 900 x 968 km, 97.2° (Epoch: 10 February)

Event Time Altitude Azimuth Distance (km) Brightness Sun altitude
Rises 03:24:29 0° 8° (N) 3,635 5.1 -36.5°
Reaches altitude 10° 03:27:12 10° 359° (N) 2,675 4.2 -36.1°
Enters shadow 03:27:33 12° 357° (N) 2,554 4.1 -36.1°
